Location: Kott?ru
(16.6209°N, 80.6208°E)
Time: 13:33:57
(UTC+00:00)

Milstar 3 Cent rocket - Pass Details

Date: 18 September 2020
Orbit: 707 x 5145 km, 28.3° (Epoch: 29 October)

Event Time Altitude Azimuth Distance (km) Brightness Sun altitude
Rises 14:31:36 0° 267° (W) 4,521 7.1 -28.2°
Reaches altitude 10° 14:35:31 10° 276° (W) 3,021 6.0 -29.1°
Maximum altitude 14:41:26 34° 341° (NNW) 1,313 3.4 -30.5°
Enters shadow 14:41:53 34° 352° (N) 1,302 3.3 -30.6°
